SAS4225 EFVA-ESSA

Flight info

Callsign SAS4225
Flight time 0h 43m
Altitude 32000
Route BUPEG DCT BAKLA N5 VACRA
Aircraft B736/M-SDE2E3FGHIRWXY/LB1

Departure

Time 2026-04-20 12:39
Airport Vaasa Airport (EFVA)

Arrival

Time 2026-04-20 13:22
Airport Stockholm-Arlanda Airport (ESSA)
Time Latitude Longitude Altitude Speed Heading
2026-04-20 11:44 63.04382 21.76184 23 ft 0 kts 285°
2026-04-20 12:36 63.04383 21.76182 23 ft 1 kts 297°
2026-04-20 12:37 63.04392 21.76208 26 ft 5 kts 85°
2026-04-20 12:37 63.04357 21.76304 23 ft 10 kts 140°
2026-04-20 12:37 63.04358 21.76466 24 ft 13 kts 69°
2026-04-20 12:37 63.04396 21.76635 28 ft 13 kts 29°
2026-04-20 12:38 63.04471 21.76608 27 ft 16 kts 342°
2026-04-20 12:38 63.04624 21.76508 31 ft 34 kts 343°
2026-04-20 12:38 63.05088 21.76197 26 ft 102 kts 343°
2026-04-20 12:38 63.05931 21.75626 51 ft 147 kts 346°
2026-04-20 12:39 63.07923 21.74310 1223 ft 153 kts 344°
2026-04-20 12:39 63.08937 21.73611 1935 ft 152 kts 344°
2026-04-20 12:39 63.10013 21.72892 2534 ft 169 kts 344°
2026-04-20 12:40 63.11152 21.72127 3297 ft 176 kts 343°
2026-04-20 12:40 63.12177 21.70653 4090 ft 181 kts 308°
2026-04-20 12:40 63.12599 21.68028 5100 ft 191 kts 274°
2026-04-20 12:40 63.12206 21.65157 6024 ft 209 kts 235°
2026-04-20 12:41 63.11008 21.62946 6417 ft 245 kts 211°
2026-04-20 12:41 63.09415 21.60902 6865 ft 279 kts 209°
2026-04-20 12:41 63.07710 21.58813 7888 ft 287 kts 208°
2026-04-20 12:41 63.05957 21.56673 9079 ft 290 kts 208°
2026-04-20 12:42 63.04171 21.54481 10190 ft 297 kts 208°
2026-04-20 12:42 63.02346 21.52226 11205 ft 304 kts 208°
2026-04-20 12:42 63.00487 21.49918 12233 ft 309 kts 208°
2026-04-20 12:42 62.98597 21.47562 13231 ft 315 kts 208°
2026-04-20 12:43 62.96672 21.45159 14254 ft 320 kts 208°
2026-04-20 12:43 62.94715 21.42711 15102 ft 329 kts 208°
2026-04-20 12:43 62.92649 21.40142 15414 ft 356 kts 208°
2026-04-20 12:43 62.90423 21.37388 15800 ft 376 kts 208°
2026-04-20 12:44 62.88116 21.34531 16581 ft 383 kts 208°
2026-04-20 12:44 62.85789 21.31643 17528 ft 386 kts 208°
2026-04-20 12:44 62.83436 21.28718 18463 ft 390 kts 207°
2026-04-20 12:44 62.81061 21.25767 19258 ft 395 kts 207°
2026-04-20 12:45 62.78656 21.22783 20020 ft 400 kts 207°
2026-04-20 12:45 62.76253 21.19805 20778 ft 404 kts 207°
2026-04-20 12:45 62.73791 21.16758 21521 ft 410 kts 206°
2026-04-20 12:45 62.71290 21.13670 22242 ft 415 kts 206°
2026-04-20 12:46 62.68758 21.10550 23002 ft 420 kts 206°
2026-04-20 12:46 62.66199 21.07402 23760 ft 424 kts 206°
2026-04-20 12:46 62.63615 21.04230 24417 ft 429 kts 206°
2026-04-20 12:46 62.61000 21.01024 25057 ft 432 kts 206°
2026-04-20 12:47 62.58368 20.97806 25724 ft 435 kts 206°
2026-04-20 12:47 62.55719 20.94571 26373 ft 438 kts 206°
2026-04-20 12:47 62.53049 20.91320 26992 ft 442 kts 206°
2026-04-20 12:47 62.50357 20.88049 27591 ft 446 kts 206°
2026-04-20 12:48 62.47643 20.84756 28200 ft 449 kts 205°
2026-04-20 12:48 62.44905 20.81443 28759 ft 453 kts 205°
2026-04-20 12:48 62.42139 20.78104 29317 ft 456 kts 205°
2026-04-20 12:48 62.39361 20.74757 29863 ft 460 kts 205°
2026-04-20 12:49 62.36557 20.71385 30388 ft 463 kts 205°
2026-04-20 12:49 62.33729 20.67992 30831 ft 466 kts 205°
2026-04-20 12:49 62.31849 20.65740 31107 ft 468 kts 205°
2026-04-20 12:49 62.28069 20.61222 31684 ft 470 kts 205°
2026-04-20 12:50 62.25214 20.57816 32251 ft 468 kts 205°
2026-04-20 12:50 62.22359 20.54418 32420 ft 472 kts 205°
2026-04-20 12:50 62.19481 20.51003 32440 ft 472 kts 204°
2026-04-20 12:51 62.14693 20.45331 32417 ft 466 kts 204°
2026-04-20 12:51 62.09059 20.38688 32442 ft 466 kts 204°
2026-04-20 12:52 62.03368 20.32013 32435 ft 468 kts 204°
2026-04-20 12:52 61.97656 20.25340 32430 ft 468 kts 204°
2026-04-20 12:53 61.91939 20.18688 32440 ft 469 kts 204°
2026-04-20 12:53 61.86202 20.12040 32438 ft 469 kts 204°
2026-04-20 12:54 61.80474 20.05432 32436 ft 469 kts 204°
2026-04-20 12:54 61.74743 19.98849 32443 ft 468 kts 204°
2026-04-20 12:55 61.69023 19.92307 32443 ft 467 kts 204°
2026-04-20 12:55 61.63304 19.85793 32448 ft 468 kts 203°
2026-04-20 12:56 61.57581 19.79304 32435 ft 467 kts 203°
2026-04-20 12:56 61.51854 19.72836 32443 ft 467 kts 203°
2026-04-20 12:57 61.46130 19.66400 32445 ft 467 kts 203°
2026-04-20 12:57 61.40403 19.59987 32464 ft 467 kts 204°
2026-04-20 12:58 61.34670 19.53594 32447 ft 467 kts 204°
2026-04-20 12:58 61.28932 19.47222 32439 ft 467 kts 204°
2026-04-20 12:59 61.23189 19.40871 32439 ft 467 kts 204°
2026-04-20 12:59 61.17445 19.34545 32443 ft 467 kts 203°
2026-04-20 13:00 61.11736 19.28285 32459 ft 467 kts 204°
2026-04-20 13:00 61.05985 19.22004 32444 ft 467 kts 204°
2026-04-20 13:01 61.00227 19.15741 32440 ft 467 kts 204°
2026-04-20 13:01 60.94474 19.09508 32444 ft 467 kts 204°
2026-04-20 13:02 60.88708 19.03290 31901 ft 473 kts 204°
2026-04-20 13:02 60.85790 19.00155 31067 ft 471 kts 204°
2026-04-20 13:02 60.82881 18.97032 30004 ft 471 kts 204°
2026-04-20 13:02 60.79977 18.93920 29031 ft 468 kts 204°
2026-04-20 13:03 60.77119 18.90861 28305 ft 460 kts 204°
2026-04-20 13:03 60.74309 18.87859 27591 ft 453 kts 204°
2026-04-20 13:03 60.71534 18.84902 26873 ft 447 kts 204°
2026-04-20 13:03 60.68793 18.81989 26149 ft 442 kts 204°
2026-04-20 13:04 60.66080 18.79113 25453 ft 437 kts 204°
2026-04-20 13:04 60.63392 18.76269 24768 ft 433 kts 204°
2026-04-20 13:04 60.60723 18.73452 24102 ft 430 kts 204°
2026-04-20 13:04 60.58075 18.70661 23318 ft 427 kts 204°
2026-04-20 13:05 60.55488 18.67938 22606 ft 422 kts 204°
2026-04-20 13:05 60.52896 18.65215 21934 ft 417 kts 205°
2026-04-20 13:05 60.50334 18.62528 21266 ft 412 kts 205°
2026-04-20 13:05 60.47796 18.59871 20605 ft 408 kts 205°
2026-04-20 13:06 60.45283 18.57245 19953 ft 405 kts 205°
2026-04-20 13:06 60.42792 18.54646 19319 ft 401 kts 205°
2026-04-20 13:06 60.40319 18.52071 18681 ft 398 kts 205°
2026-04-20 13:06 60.37864 18.49519 17968 ft 395 kts 205°
2026-04-20 13:07 60.35432 18.46993 17339 ft 390 kts 205°
2026-04-20 13:07 60.33026 18.44499 16710 ft 387 kts 205°
2026-04-20 13:07 60.30644 18.42035 16085 ft 383 kts 205°
2026-04-20 13:07 60.28255 18.39717 15454 ft 379 kts 197°
2026-04-20 13:08 60.25719 18.38836 15145 ft 365 kts 180°
2026-04-20 13:08 60.23193 18.38637 14815 ft 362 kts 179°
2026-04-20 13:08 60.20678 18.38481 14486 ft 362 kts 179°
2026-04-20 13:08 60.18158 18.38318 14147 ft 362 kts 179°
2026-04-20 13:09 60.15642 18.38136 13777 ft 361 kts 179°
2026-04-20 13:09 60.13130 18.37939 13430 ft 360 kts 179°
2026-04-20 13:09 60.10633 18.37732 13100 ft 359 kts 179°
2026-04-20 13:09 60.08145 18.37523 12778 ft 357 kts 179°
2026-04-20 13:10 60.05670 18.37122 12452 ft 357 kts 184°
2026-04-20 13:10 60.03238 18.36391 12112 ft 349 kts 187°
2026-04-20 13:10 60.00877 18.35573 11788 ft 340 kts 187°
2026-04-20 13:10 59.98576 18.34765 11487 ft 331 kts 187°
2026-04-20 13:11 59.96332 18.33993 11197 ft 323 kts 187°
2026-04-20 13:11 59.94139 18.33258 10900 ft 316 kts 186°
2026-04-20 13:11 59.91990 18.32552 10614 ft 310 kts 186°
2026-04-20 13:11 59.89878 18.31869 10337 ft 305 kts 186°
2026-04-20 13:12 59.87793 18.31202 10045 ft 302 kts 186°
2026-04-20 13:12 59.85751 18.30553 9756 ft 301 kts 186°
2026-04-20 13:12 59.83690 18.29900 9478 ft 299 kts 186°
2026-04-20 13:12 59.81645 18.29252 9192 ft 297 kts 186°
2026-04-20 13:13 59.79614 18.28611 8920 ft 293 kts 186°
2026-04-20 13:13 59.77620 18.27981 8654 ft 288 kts 186°
2026-04-20 13:13 59.75652 18.27360 8406 ft 284 kts 186°
2026-04-20 13:13 59.73704 18.26748 8146 ft 283 kts 186°
2026-04-20 13:14 59.71764 18.26139 7888 ft 282 kts 186°
2026-04-20 13:14 59.69826 18.25531 7628 ft 281 kts 186°
2026-04-20 13:14 59.67895 18.24927 7378 ft 281 kts 186°
2026-04-20 13:14 59.65967 18.24323 7119 ft 280 kts 186°
2026-04-20 13:15 59.64042 18.23720 6876 ft 280 kts 187°
2026-04-20 13:15 59.62190 18.22570 6595 ft 282 kts 205°
2026-04-20 13:15 59.60437 18.20802 6329 ft 281 kts 207°
2026-04-20 13:15 59.58719 18.18995 6078 ft 278 kts 207°
2026-04-20 13:16 59.57029 18.17204 5821 ft 274 kts 207°
2026-04-20 13:16 59.55353 18.15424 5611 ft 274 kts 207°
2026-04-20 13:16 59.53670 18.13634 5408 ft 275 kts 207°
2026-04-20 13:16 59.51988 18.11838 5112 ft 274 kts 210°
2026-04-20 13:17 59.50596 18.09369 4791 ft 266 kts 238°
2026-04-20 13:17 59.49998 18.06079 4495 ft 250 kts 269°
2026-04-20 13:17 59.50013 18.02769 4198 ft 236 kts 276°
2026-04-20 13:17 59.50095 17.99660 3884 ft 226 kts 277°
2026-04-20 13:18 59.50181 17.96576 3531 ft 219 kts 278°
2026-04-20 13:18 59.50556 17.93825 3212 ft 206 kts 303°
2026-04-20 13:18 59.51267 17.91491 2990 ft 192 kts 307°
2026-04-20 13:18 59.51959 17.89313 2742 ft 183 kts 309°
2026-04-20 13:19 59.52880 17.87841 2424 ft 168 kts 351°
2026-04-20 13:19 59.53993 17.87968 2174 ft 156 kts
2026-04-20 13:19 59.55038 17.88215 1946 ft 146 kts 11°
2026-04-20 13:19 59.56028 17.88540 1755 ft 143 kts 12°
2026-04-20 13:20 59.57017 17.88893 1547 ft 144 kts 12°
2026-04-20 13:20 59.58002 17.89249 1345 ft 146 kts 12°
2026-04-20 13:20 59.58955 17.89594 1154 ft 130 kts 12°
2026-04-20 13:20 59.59780 17.89893 968 ft 113 kts 12°
2026-04-20 13:21 59.60534 17.90167 827 ft 108 kts 15°
2026-04-20 13:21 59.61297 17.90444 699 ft 112 kts 17°
2026-04-20 13:21 59.62079 17.90730 532 ft 116 kts 15°
2026-04-20 13:21 59.62869 17.91015 363 ft 116 kts 15°
2026-04-20 13:22 59.63665 17.91294 152 ft 116 kts 14°
2026-04-20 13:22 59.64418 17.91568 108 ft 98 kts 12°
2026-04-20 13:22 59.64966 17.91770 104 ft 44 kts 10°
2026-04-20 13:22 59.65169 17.91897 103 ft 26 kts 32°
2026-04-20 13:23 59.65299 17.92103 102 ft 23 kts 44°
2026-04-20 13:23 59.65408 17.92310 104 ft 20 kts 43°
2026-04-20 13:23 59.65504 17.92499 103 ft 19 kts 55°
2026-04-20 13:23 59.65546 17.92740 105 ft 19 kts 76°
2026-04-20 13:24 59.65577 17.92984 107 ft 18 kts 76°
2026-04-20 13:24 59.65608 17.93219 107 ft 17 kts 75°
2026-04-20 13:24 59.65628 17.93391 109 ft 14 kts 75°
2026-04-20 13:24 59.65655 17.93585 111 ft 15 kts 77°
2026-04-20 13:25 59.65672 17.93728 113 ft 3 kts 76°
2026-04-20 13:25 59.65678 17.93772 111 ft 3 kts 75°
2026-04-20 13:25 59.65673 17.93813 111 ft 4 kts 130°
2026-04-20 13:25 59.65646 17.93830 114 ft 0 kts 166°
2026-04-20 13:26 59.65645 17.93830 114 ft 0 kts 166°
2026-04-20 13:28 59.65626 17.93839 111 ft 9 kts 166°
2026-04-20 13:28 59.65534 17.93886 112 ft 15 kts 165°
2026-04-20 13:29 59.65480 17.93893 112 ft 3 kts 234°
2026-04-20 13:29 59.65474 17.93840 111 ft 6 kts 256°
2026-04-20 13:29 59.65465 17.93769 111 ft 2 kts 256°
2026-04-20 13:29 59.65463 17.93754 111 ft 0 kts 256°